WJA3553 CYXE-CYEG

Flight info

Callsign WJA3553
Flight time 0h 47m
Altitude 36000
Route TAGOT Q819 CAMRA IGSOX3
Aircraft B736/M-SDE2E3FGHIRWXY/LB1

Departure

Time 2026-04-27 00:17
Airport Saskatoon John G. Diefenbaker International Airport (CYXE)

Arrival

Time 2026-04-27 01:04
Airport Edmonton International Airport (CYEG)
Time Latitude Longitude Altitude Speed Heading
2026-04-26 23:53 52.17072 -106.69082 1649 ft 0 kts 153°
2026-04-26 23:57 52.17072 -106.69083 1649 ft 0 kts 153°
2026-04-26 23:57 52.17072 -106.69082 1649 ft 0 kts 153°
2026-04-26 23:57 52.17072 -106.69083 1649 ft 0 kts 153°
2026-04-27 00:07 52.17078 -106.69088 1649 ft 2 kts 154°
2026-04-27 00:07 52.17096 -106.69101 1649 ft 3 kts 155°
2026-04-27 00:07 52.17111 -106.69114 1649 ft 3 kts 150°
2026-04-27 00:07 52.17126 -106.69133 1649 ft 3 kts 117°
2026-04-27 00:08 52.17130 -106.69163 1649 ft 3 kts 81°
2026-04-27 00:08 52.17125 -106.69195 1649 ft 3 kts 65°
2026-04-27 00:08 52.17116 -106.69224 1649 ft 3 kts 60°
2026-04-27 00:08 52.17106 -106.69252 1649 ft 3 kts 72°
2026-04-27 00:09 52.17105 -106.69282 1649 ft 3 kts 115°
2026-04-27 00:09 52.17117 -106.69308 1649 ft 3 kts 141°
2026-04-27 00:09 52.17133 -106.69327 1649 ft 3 kts 143°
2026-04-27 00:09 52.17139 -106.69336 1642 ft 0 kts 138°
2026-04-27 00:10 52.17140 -106.69336 1642 ft 0 kts 138°
2026-04-27 00:13 52.17139 -106.69335 1642 ft 1 kts 138°
2026-04-27 00:13 52.17122 -106.69300 1649 ft 9 kts 122°
2026-04-27 00:13 52.17120 -106.69191 1649 ft 11 kts 71°
2026-04-27 00:14 52.17165 -106.69100 1649 ft 10 kts 42°
2026-04-27 00:14 52.17188 -106.68993 1649 ft 12 kts 93°
2026-04-27 00:14 52.17168 -106.68815 1649 ft 18 kts 101°
2026-04-27 00:14 52.17146 -106.68621 1649 ft 17 kts 101°
2026-04-27 00:15 52.17122 -106.68429 1649 ft 15 kts 101°
2026-04-27 00:15 52.17132 -106.68295 1649 ft 13 kts 32°
2026-04-27 00:15 52.17218 -106.68262 1649 ft 13 kts 10°
2026-04-27 00:15 52.17303 -106.68236 1649 ft 12 kts 10°
2026-04-27 00:16 52.17386 -106.68212 1648 ft 12 kts
2026-04-27 00:16 52.17427 -106.68260 1648 ft 4 kts 282°
2026-04-27 00:16 52.17428 -106.68269 1648 ft 0 kts 281°
2026-04-27 00:17 52.17447 -106.68424 1648 ft 47 kts 281°
2026-04-27 00:17 52.17558 -106.69379 1651 ft 121 kts 281°
2026-04-27 00:17 52.17737 -106.70906 2081 ft 142 kts 281°
2026-04-27 00:17 52.17927 -106.72538 3010 ft 149 kts 283°
2026-04-27 00:18 52.18155 -106.74193 3928 ft 149 kts 284°
2026-04-27 00:18 52.18370 -106.75859 4829 ft 157 kts 283°
2026-04-27 00:18 52.18627 -106.77643 5501 ft 174 kts 284°
2026-04-27 00:18 52.18923 -106.79667 6118 ft 191 kts 284°
2026-04-27 00:19 52.19258 -106.81895 6641 ft 216 kts 284°
2026-04-27 00:19 52.19628 -106.84403 7290 ft 235 kts 283°
2026-04-27 00:19 52.19955 -106.87087 8130 ft 247 kts 280°
2026-04-27 00:19 52.20235 -106.89949 8844 ft 264 kts 281°
2026-04-27 00:20 52.20528 -106.92887 9753 ft 263 kts 281°
2026-04-27 00:20 52.20829 -106.95821 10037 ft 263 kts 281°
2026-04-27 00:20 52.21160 -106.98764 10033 ft 262 kts 282°
2026-04-27 00:20 52.21512 -107.01678 10038 ft 260 kts 283°
2026-04-27 00:21 52.21866 -107.04524 10042 ft 258 kts 283°
2026-04-27 00:21 52.22266 -107.07380 10208 ft 262 kts 286°
2026-04-27 00:21 52.22777 -107.10346 10596 ft 287 kts 287°
2026-04-27 00:21 52.23359 -107.13602 11078 ft 307 kts 288°
2026-04-27 00:22 52.23966 -107.16997 11939 ft 314 kts 288°
2026-04-27 00:22 52.24577 -107.20437 12964 ft 318 kts 288°
2026-04-27 00:22 52.25194 -107.23943 13907 ft 325 kts 288°
2026-04-27 00:22 52.25818 -107.27515 14795 ft 329 kts 288°
2026-04-27 00:23 52.26446 -107.31133 15748 ft 332 kts 287°
2026-04-27 00:23 52.27078 -107.34787 16701 ft 336 kts 287°
2026-04-27 00:23 52.27715 -107.38485 17637 ft 341 kts 287°
2026-04-27 00:23 52.28359 -107.42240 18565 ft 345 kts 287°
2026-04-27 00:24 52.29009 -107.46037 19366 ft 349 kts 287°
2026-04-27 00:24 52.29666 -107.49883 20167 ft 354 kts 288°
2026-04-27 00:24 52.30330 -107.53782 20953 ft 359 kts 288°
2026-04-27 00:24 52.31001 -107.57732 21757 ft 363 kts 288°
2026-04-27 00:25 52.31672 -107.61687 22544 ft 368 kts 288°
2026-04-27 00:25 52.32358 -107.65739 23325 ft 373 kts 288°
2026-04-27 00:25 52.33061 -107.69904 24029 ft 378 kts 288°
2026-04-27 00:25 52.33752 -107.74013 24666 ft 382 kts 288°
2026-04-27 00:26 52.34458 -107.78217 25338 ft 385 kts 288°
2026-04-27 00:26 52.35170 -107.82476 26000 ft 389 kts 288°
2026-04-27 00:26 52.35887 -107.86768 26630 ft 393 kts 287°
2026-04-27 00:26 52.36610 -107.91109 27252 ft 397 kts 287°
2026-04-27 00:27 52.37338 -107.95487 27861 ft 401 kts 287°
2026-04-27 00:27 52.38071 -107.99909 28450 ft 405 kts 287°
2026-04-27 00:27 52.38810 -108.04383 29021 ft 408 kts 287°
2026-04-27 00:27 52.39554 -108.08894 29597 ft 412 kts 287°
2026-04-27 00:28 52.40303 -108.13446 30138 ft 416 kts 286°
2026-04-27 00:28 52.41057 -108.18045 30586 ft 419 kts 286°
2026-04-27 00:28 52.41814 -108.22670 31044 ft 422 kts 286°
2026-04-27 00:28 52.42572 -108.27319 31548 ft 422 kts 286°
2026-04-27 00:29 52.43329 -108.31971 32036 ft 424 kts 286°
2026-04-27 00:29 52.44088 -108.36652 32481 ft 426 kts 286°
2026-04-27 00:29 52.44849 -108.41356 32935 ft 428 kts 286°
2026-04-27 00:29 52.45611 -108.46077 33400 ft 429 kts 286°
2026-04-27 00:30 52.46363 -108.50753 33856 ft 430 kts 286°
2026-04-27 00:30 52.47127 -108.55516 34280 ft 432 kts 286°
2026-04-27 00:30 52.47890 -108.60288 34680 ft 432 kts 286°
2026-04-27 00:30 52.48652 -108.65065 35083 ft 432 kts 286°
2026-04-27 00:31 52.49410 -108.69826 35493 ft 432 kts 286°
2026-04-27 00:31 52.50167 -108.74604 35879 ft 432 kts 285°
2026-04-27 00:31 52.50921 -108.79372 36193 ft 433 kts 285°
2026-04-27 00:31 52.51679 -108.84178 36173 ft 435 kts 285°
2026-04-27 00:32 52.53186 -108.93772 36185 ft 432 kts 285°
2026-04-27 00:32 52.54669 -109.03278 36201 ft 432 kts 285°
2026-04-27 00:33 52.56155 -109.12854 36202 ft 432 kts 285°
2026-04-27 00:33 52.57634 -109.22437 36201 ft 432 kts 285°
2026-04-27 00:34 52.59105 -109.32022 36203 ft 432 kts 285°
2026-04-27 00:34 52.60570 -109.41637 36211 ft 433 kts 285°
2026-04-27 00:35 52.62017 -109.51189 36209 ft 433 kts 285°
2026-04-27 00:35 52.63477 -109.60881 36205 ft 433 kts 285°
2026-04-27 00:36 52.64913 -109.70467 36208 ft 434 kts 285°
2026-04-27 00:36 52.66350 -109.80126 36213 ft 434 kts 285°
2026-04-27 00:37 52.67782 -109.89803 36213 ft 435 kts 285°
2026-04-27 00:37 52.69206 -109.99494 36216 ft 435 kts 285°
2026-04-27 00:38 52.70624 -110.09196 36216 ft 435 kts 285°
2026-04-27 00:38 52.72034 -110.18908 36218 ft 435 kts 285°
2026-04-27 00:39 52.73439 -110.28647 36217 ft 436 kts 285°
2026-04-27 00:39 52.74825 -110.38319 36224 ft 436 kts 284°
2026-04-27 00:40 52.76215 -110.48079 36225 ft 436 kts 284°
2026-04-27 00:40 52.77601 -110.57862 35631 ft 441 kts 284°
2026-04-27 00:41 52.78293 -110.62779 34999 ft 440 kts 284°
2026-04-27 00:41 52.78985 -110.67706 34305 ft 440 kts 284°
2026-04-27 00:41 52.79676 -110.72644 33486 ft 441 kts 284°
2026-04-27 00:41 52.80359 -110.77546 32954 ft 434 kts 284°
2026-04-27 00:42 52.81021 -110.82319 32430 ft 429 kts 284°
2026-04-27 00:42 52.81681 -110.87091 31899 ft 423 kts 285°
2026-04-27 00:42 52.82332 -110.91806 31404 ft 418 kts 285°
2026-04-27 00:42 52.82975 -110.96473 30912 ft 413 kts 285°
2026-04-27 00:43 52.83607 -111.01081 30429 ft 409 kts 285°
2026-04-27 00:43 52.84232 -111.05647 29872 ft 404 kts 285°
2026-04-27 00:43 52.84846 -111.10146 29344 ft 398 kts 285°
2026-04-27 00:43 52.85450 -111.14588 28852 ft 392 kts 285°
2026-04-27 00:44 52.86043 -111.18960 28368 ft 387 kts 285°
2026-04-27 00:44 52.86626 -111.23274 27878 ft 382 kts 285°
2026-04-27 00:44 52.87202 -111.27547 27394 ft 378 kts 285°
2026-04-27 00:44 52.87772 -111.31780 26926 ft 374 kts 284°
2026-04-27 00:45 52.88333 -111.35968 26453 ft 370 kts 284°
2026-04-27 00:45 52.88880 -111.40061 26005 ft 367 kts 284°
2026-04-27 00:45 52.89429 -111.44175 25555 ft 364 kts 284°
2026-04-27 00:45 52.89970 -111.48248 25116 ft 361 kts 284°
2026-04-27 00:46 52.90507 -111.52298 24673 ft 358 kts 284°
2026-04-27 00:46 52.91039 -111.56317 24243 ft 356 kts 284°
2026-04-27 00:46 52.91566 -111.60320 23803 ft 354 kts 284°
2026-04-27 00:46 52.92090 -111.64302 23284 ft 352 kts 284°
2026-04-27 00:47 52.92606 -111.68246 22823 ft 349 kts 284°
2026-04-27 00:47 52.93116 -111.72151 22391 ft 345 kts 284°
2026-04-27 00:47 52.93620 -111.76018 21969 ft 341 kts 284°
2026-04-27 00:47 52.94118 -111.79847 21539 ft 338 kts 284°
2026-04-27 00:48 52.94610 -111.83643 21122 ft 335 kts 284°
2026-04-27 00:48 52.95092 -111.87371 20704 ft 333 kts 284°
2026-04-27 00:48 52.95575 -111.91111 20257 ft 331 kts 284°
2026-04-27 00:48 52.96056 -111.94852 19798 ft 331 kts 284°
2026-04-27 00:49 52.96533 -111.98572 19375 ft 329 kts 284°
2026-04-27 00:49 52.97008 -112.02281 18958 ft 327 kts 284°
2026-04-27 00:49 52.97478 -112.05968 18542 ft 325 kts 284°
2026-04-27 00:49 52.97945 -112.09634 18066 ft 324 kts 284°
2026-04-27 00:50 52.98408 -112.13284 17630 ft 321 kts 284°
2026-04-27 00:50 52.99313 -112.20440 16809 ft 316 kts 284°
2026-04-27 00:50 52.99762 -112.24005 16406 ft 314 kts 284°
2026-04-27 00:51 53.00206 -112.27542 15992 ft 313 kts 283°
2026-04-27 00:51 53.00649 -112.31073 15590 ft 311 kts 283°
2026-04-27 00:51 53.01087 -112.34582 15203 ft 310 kts 283°
2026-04-27 00:51 53.01524 -112.38083 14811 ft 309 kts 283°
2026-04-27 00:52 53.01813 -112.40397 14549 ft 308 kts 283°
2026-04-27 00:52 53.02245 -112.43878 14162 ft 308 kts 283°
2026-04-27 00:52 53.02676 -112.47361 13716 ft 307 kts 283°
2026-04-27 00:52 53.03106 -112.50833 13290 ft 306 kts 283°
2026-04-27 00:53 53.03594 -112.54232 13032 ft 300 kts 286°
2026-04-27 00:53 53.04121 -112.57592 12689 ft 302 kts 286°
2026-04-27 00:53 53.04666 -112.61004 12300 ft 308 kts 286°
2026-04-27 00:53 53.05219 -112.64485 11907 ft 313 kts 286°
2026-04-27 00:54 53.05767 -112.67968 11505 ft 310 kts 286°
2026-04-27 00:54 53.06306 -112.71421 11103 ft 307 kts 285°
2026-04-27 00:54 53.06839 -112.74848 10712 ft 305 kts 285°
2026-04-27 00:54 53.07365 -112.78253 10390 ft 300 kts 285°
2026-04-27 00:55 53.07867 -112.81511 10253 ft 289 kts 285°
2026-04-27 00:55 53.08364 -112.84743 10070 ft 281 kts 285°
2026-04-27 00:55 53.08840 -112.87847 9702 ft 280 kts 285°
2026-04-27 00:55 53.09318 -112.90970 9361 ft 277 kts 285°
2026-04-27 00:56 53.09793 -112.94074 9021 ft 275 kts 285°
2026-04-27 00:56 53.10262 -112.97145 8688 ft 273 kts 285°
2026-04-27 00:56 53.10727 -113.00195 8344 ft 271 kts 285°
2026-04-27 00:56 53.11187 -113.03225 7995 ft 268 kts 285°
2026-04-27 00:57 53.11636 -113.06192 7654 ft 260 kts 285°
2026-04-27 00:57 53.12086 -113.09071 7334 ft 253 kts 286°
2026-04-27 00:57 53.12536 -113.11855 7028 ft 245 kts 286°
2026-04-27 00:57 53.12974 -113.14558 6734 ft 238 kts 286°
2026-04-27 00:58 53.13399 -113.17182 6440 ft 231 kts 286°
2026-04-27 00:58 53.13810 -113.19728 6296 ft 223 kts 286°
2026-04-27 00:58 53.14205 -113.22181 6165 ft 216 kts 286°
2026-04-27 00:58 53.14586 -113.24550 6052 ft 208 kts 286°
2026-04-27 00:59 53.14952 -113.26833 5971 ft 201 kts 286°
2026-04-27 00:59 53.15310 -113.29068 5884 ft 198 kts 286°
2026-04-27 00:59 53.15659 -113.31255 5814 ft 190 kts 286°
2026-04-27 00:59 53.15986 -113.33310 5723 ft 180 kts 286°
2026-04-27 01:00 53.16372 -113.35232 5555 ft 177 kts 305°
2026-04-27 01:00 53.17149 -113.36772 5440 ft 175 kts 310°
2026-04-27 01:00 53.17966 -113.38304 5225 ft 177 kts 314°
2026-04-27 01:00 53.18827 -113.39769 5084 ft 176 kts 315°
2026-04-27 01:01 53.19696 -113.41230 5035 ft 178 kts 315°
2026-04-27 01:01 53.20576 -113.42708 4855 ft 180 kts 315°
2026-04-27 01:01 53.21452 -113.44180 4586 ft 174 kts 315°
2026-04-27 01:01 53.22287 -113.45582 4361 ft 169 kts 315°
2026-04-27 01:02 53.23127 -113.46994 4104 ft 172 kts 315°
2026-04-27 01:02 53.23953 -113.48382 3845 ft 166 kts 315°
2026-04-27 01:02 53.24727 -113.49681 3659 ft 146 kts 315°
2026-04-27 01:02 53.25410 -113.50827 3385 ft 131 kts 315°
2026-04-27 01:03 53.26036 -113.51878 3150 ft 126 kts 315°
2026-04-27 01:03 53.26656 -113.52928 2983 ft 129 kts 314°
2026-04-27 01:03 53.27283 -113.53986 2805 ft 126 kts 315°
2026-04-27 01:03 53.27911 -113.55024 2619 ft 128 kts 314°
2026-04-27 01:04 53.28548 -113.56090 2467 ft 129 kts 315°
2026-04-27 01:04 53.29166 -113.57130 2384 ft 117 kts 314°
2026-04-27 01:04 53.29651 -113.57940 2384 ft 77 kts 315°
2026-04-27 01:04 53.29962 -113.58461 2384 ft 49 kts 315°
2026-04-27 01:05 53.30153 -113.58778 2381 ft 28 kts 315°
2026-04-27 01:05 53.30266 -113.58855 2383 ft 17 kts 357°
2026-04-27 01:05 53.30384 -113.58852 2384 ft 17 kts 360°
2026-04-27 01:05 53.30474 -113.58854 2383 ft 12 kts 359°
2026-04-27 01:06 53.30548 -113.58829 2388 ft 11 kts 42°
2026-04-27 01:06 53.30597 -113.58728 2383 ft 11 kts 74°
2026-04-27 01:06 53.30565 -113.58619 2383 ft 12 kts 137°
2026-04-27 01:06 53.30506 -113.58518 2386 ft 12 kts 133°
2026-04-27 01:07 53.30492 -113.58415 2383 ft 10 kts 44°
2026-04-27 01:07 53.30534 -113.58358 2388 ft 6 kts 39°
2026-04-27 01:07 53.30544 -113.58345 2383 ft 0 kts 38°